Location: Krasnoyarskiy Pitomnik
(51.1333°N, 71.6167°E)
Time: 10:19:00
(UTC+00:00)

Cosmos 2251 Rocket - Pass Details

Date: 22 October 2021
Orbit: 765 x 791 km, 74.0° (Epoch: 06 December)

Event Time Altitude Azimuth Distance (km) Brightness Sun altitude
Rises 14:15:23 0° 334° (NNW) 3,257 7.2 -20.9°
Reaches altitude 10° 14:17:47 10° 333° (NNW) 2,323 6.4 -21.2°
Maximum altitude 14:23:02 76° 248° (WSW) 796 3.6 -22.0°
Enters shadow 14:26:17 24° 167° (SSE) 1,566 4.9 -22.5°
